Flag for United Kingdom Weather past 2 weeks in Edinburgh, Scotland, United Kingdom

Now
52 °F

Passing clouds.


Feels Like: 48 °F
Forecast: 48 / 58 °F
Wind: 10 mph from Southwest

Location: Edinburgh Airport

Current Time: Jul 31, 2015 at 2:06:23 AM

Latest Report: Jul 31, 2015 at 1:20 AM


Visibility: N/A

Pressure: 30.04 "Hg

Humidity: 82%

Dew point: 46 °F

Location of EdinburghLocation

Historic Weather in Edinburgh — Graph

°F

Edinburgh temperature yesterday

Maximum temperature yesterday: 61 °F (at 6:50 PM)
Minimum temperature yesterday: 46 °F (at 6:20 AM)
Average temperature yesterday: 54 °F

Past Weeks' High & Low Weather Summary

 TemperatureHumidityPressure
High64 °F (Jul 16, 5:20 PM)100% (Jul 16, 3:20 AM)30.15 "Hg (Jul 16, 3:20 AM)
Low41 °F (Jul 26, 5:20 AM)51% (Jul 30, 4:20 PM)29.42 "Hg (Jul 27, 3:20 AM)
Average55 °F82%29.78 "Hg
* Reported Jul 16 12:20 AM — Jul 31 12:50 AM, Edinburgh, Weather by CustomWeather, © 2015

Note: Actual official high and low records may vary slightly from our data, if they occured in-between our weather recording intervals... More about our weather records

Advertising

Edinburgh weather history for previous 24 hours

 ConditionsComfort  
Time TempWeatherWind HumidityBarometerVisibility
12:50 AM
Fri, Jul 31
52 °FClear.6 mph82%30.07 "Hg10 mi
12:20 AM52 °FClear.6 mph82%30.07 "Hg10 mi
11:50 PM
Thu, Jul 30
54 °FClear.8 mph77%30.07 "Hg10 mi
10:20 PM52 °FSunny.6 mph77%30.07 "Hg10 mi
9:50 PM54 °FSunny.6 mph67%30.07 "Hg10 mi
9:20 PM54 °FSunny.2 mph67%30.07 "Hg10 mi
8:50 PM54 °FSunny.7 mph67%30.07 "Hg10 mi
8:20 PM55 °FSunny.7 mph63%30.07 "Hg10 mi
7:50 PM57 °FScattered clouds.8 mph59%30.07 "HgN/A
7:20 PM59 °FSunny.8 mph55%30.07 "Hg10 mi
6:50 PM61 °FPartly sunny.8 mph52%30.07 "HgN/A
6:20 PM59 °FScattered clouds.7 mph55%30.07 "HgN/A
5:50 PM59 °FPartly sunny.10 mph55%30.07 "HgN/A
5:20 PM59 °FScattered clouds.7 mph55%30.07 "HgN/A
4:50 PM59 °FScattered clouds.10 mph55%30.07 "HgN/A
4:20 PM59 °FPartly sunny.8 mph51%30.07 "HgN/A
3:50 PM59 °FOvercast.8 mph55%30.07 "HgN/A
3:20 PM57 °FPartly sunny.8 mph59%30.07 "HgN/A
2:50 PM57 °FPartly sunny.7 mph59%30.07 "HgN/A
2:20 PM57 °FPartly sunny.6 mph59%30.07 "HgN/A
1:50 PM57 °FPartly sunny.5 mph63%30.07 "HgN/A
1:20 PM57 °FPartly sunny.5 mph59%30.07 "HgN/A
12:50 PM55 °FPartly sunny.6 mph63%30.07 "HgN/A
12:20 PM57 °FPartly sunny.6 mph59%30.07 "HgN/A
11:50 AM55 °FPartly sunny.7 mph63%30.07 "HgN/A
11:20 AM55 °FPartly sunny.6 mph67%30.07 "HgN/A
10:50 AM54 °FPartly sunny.No wind67%30.07 "HgN/A
10:20 AM54 °FPartly sunny.2 mph67%30.07 "HgN/A
9:50 AM54 °FPartly sunny.3 mph63%30.07 "HgN/A
9:20 AM52 °FPartly sunny.3 mph72%30.04 "HgN/A
8:50 AM52 °FScattered clouds.3 mph82%30.04 "HgN/A
8:20 AM52 °FScattered clouds.2 mph82%30.04 "HgN/A
7:50 AM50 °FScattered clouds.2 mph88%30.04 "HgN/A
7:20 AM50 °FScattered clouds.3 mph88%30.04 "HgN/A
6:50 AM48 °FPassing clouds.2 mph87%30.04 "HgN/A
6:20 AM46 °FPassing clouds.2 mph93%30.01 "HgN/A
5:50 AM48 °FPassing clouds.No wind87%30.01 "HgN/A
5:20 AM48 °FPassing clouds.2 mph94%30.01 "HgN/A
4:50 AM48 °FPassing clouds.5 mph94%30.01 "HgN/A
4:20 AM48 °FPassing clouds.5 mph94%30.01 "HgN/A
3:50 AM48 °FPassing clouds.No wind94%30.01 "HgN/A
3:20 AM50 °FPassing clouds.2 mph82%29.98 "HgN/A
2:50 AM50 °FPassing clouds.No wind88%29.98 "HgN/A
2:20 AM50 °FPassing clouds.2 mph88%29.98 "HgN/A
Weather by CustomWeather, © 2015

See weather overviewHow to use our weather pages